Weather History for CWGT - March, 2014

Change the Weather History Date:

Friday, March 28, 2014

  Actual Average Record
Temperature  
Mean Temperature 46 °F -  
Max Temperature 48 °F - - ()
Min Temperature 45 °F - - ()
Degree Days  
Heating Degree Days 18    
Moisture  
Dew Point 43 °F    
Average Humidity 86    
Maximum Humidity 98    
Minimum Humidity 77    
Precipitation  
Precipitation 0.00 in - - ()
Sea Level Pressure  
Sea Level Pressure 29.63 in    
Wind  
Wind Speed 25 mph ()    
Max Wind Speed 41 mph    
Max Gust Speed 48 mph    
T = Trace of Precipitation, MM = Missing Value Source: Averaged Metar Reports

Daily Weather History Graph

Daily Weather History Graph

Search for Another Location

Airport or City:

Trip Planner

Search our weather history database for the weather conditions in past years. The results will help you decide how hot, cold, wet, or windy it might be!

Date:

Astronomy

Mar. 28, 2014 Rise Set
Actual Time 7:03 AM PDT 7:43 PM PDT
Civil Twilight 6:30 AM PDT 8:15 PM PDT
Nautical Twilight 5:52 AM PDT 8:54 PM PDT
Astronomical Twilight 5:12 AM PDT 9:34 PM PDT
Moon 5:49 AM PDT (3/28) 5:37 PM PDT (3/28)
Length of Visible Light 13h 44m
Length of Day
12h 40m
Waning Crescent, 5% of the Moon is Illuminated
Mar 28
Waning Crescent
Mar 30
New
Apr 7
First Quarter
Apr 15
Full
Apr 22
Last Quarter

Hourly Weather History & Observations

Time (PDT) Temp. Windchill Dew Point Humidity Pressure Visibility Wind Dir Wind Speed Gust Speed Precip Events Conditions
12:00 AM 46.9 °F - 43.9 °F 89% 29.79 in - ESE 21.9 mph - N/A   Unknown
1:00 AM 46.9 °F - 43.5 °F 88% 29.78 in - ESE 21.9 mph - N/A   Unknown
2:00 AM 46.8 °F - 43.9 °F 90% 29.77 in - ESE 23.0 mph - N/A   Unknown
3:00 AM 46.9 °F - 43.9 °F 89% 29.75 in - ESE 27.6 mph - N/A   Unknown
4:00 AM 46.9 °F - 41.9 °F 83% 29.73 in - ESE 27.6 mph - N/A   Unknown
5:00 AM 47 °F - 44 °F 83% 29.70 in - ESE 29.9 mph - -  
5:00 AM 46.6 °F - 43.5 °F 89% 29.70 in - ESE 29.9 mph - N/A   Unknown
6:00 AM 46.4 °F 36.9 °F 43.2 °F 88% 29.68 in - ESE 32.2 mph - N/A   Unknown
7:00 AM 46.6 °F - 43.3 °F 88% 29.65 in - ESE 27.6 mph 33.4 mph N/A   Unknown
8:00 AM 46.6 °F - 43.2 °F 88% 29.63 in - ESE 27.6 mph - N/A   Unknown
9:00 AM 46.9 °F - 42.1 °F 83% 29.60 in - ESE 33.4 mph 39.1 mph N/A   Unknown
10:00 AM 46.2 °F 35.5 °F 42.1 °F 85% 29.57 in - ESE 41.4 mph 48.3 mph N/A   Unknown
11:00 AM 46 °F - 41 °F 77% 29.59 in - ESE 38.0 mph - -  
11:00 AM 46.0 °F 35.6 °F 41.2 °F 83% 29.59 in - ESE 38.0 mph 46.0 mph N/A   Unknown
12:00 PM 45.9 °F 35.1 °F 40.8 °F 83% 29.58 in - ESE 40.3 mph 47.2 mph N/A   Unknown
1:00 PM 47.1 °F - 41.4 °F 80% 29.59 in - ESE 39.1 mph 47.2 mph N/A   Unknown
2:00 PM 47.7 °F - 41.7 °F 80% 29.57 in - ESE 39.1 mph 44.9 mph N/A   Unknown
3:00 PM 47.8 °F - 42.1 °F 80% 29.55 in - ESE 38.0 mph - N/A   Unknown
4:00 PM 45.5 °F 35.5 °F 43.2 °F 92% 29.54 in - ESE 33.4 mph 40.3 mph N/A   Unknown
5:00 PM 47 °F - 44 °F 84% 29.58 in - SE 24.2 mph - -  
5:00 PM 46.6 °F - 41.9 °F 84% 29.58 in - SE 24.2 mph 32.2 mph N/A   Unknown
6:00 PM 46.9 °F - 44.8 °F 92% 29.55 in - ESE 28.8 mph - N/A   Unknown
7:00 PM 45.5 °F 36.7 °F 45.0 °F 98% 29.56 in - ESE 25.3 mph - N/A   Unknown
8:00 PM 47.7 °F - 44.8 °F 90% 29.56 in - ESE 26.5 mph - N/A   Unknown
9:00 PM 48.2 °F - 44.6 °F 87% 29.57 in - ESE 18.4 mph - N/A   Unknown
10:00 PM 47.8 °F - 44.8 °F 89% 29.59 in - ESE 20.7 mph - N/A   Unknown
11:00 PM 48 °F - 44 °F 81% 29.60 in - ESE 15.0 mph - -  
11:00 PM 47.8 °F - 43.9 °F 86% 29.60 in - ESE 15.0 mph - N/A   Unknown